Showing default

LIME, 62648

Orbit data source: Space-Track

LIME, 62648 is an American payload satellite in SSO that was launched on Tue, 14 Jan 2025 UTC via an FALCON 9 launch vehicle from the Air Force Western Test Range (AFWTR). Payload-class satellites include a variety of spacecraft equipped with specific instruments for various scientific and technological missions. These include communications satellites like Starlink; space stations such as the ISS; scientific satellites like the Hubble; Earth observation satellites from companies like Planet Labs, Umbra, and HawkEye 360; GPS; miniature CubeSats for education and research; and military/defense satellites.

Loading next visibility...
Identifier
62648, 2025-009AR
Orbit
SSO
Country
Flag of USUS
Related business
Manufacturer
NOVI
Mission
Operational Commercial Technology
Bus & Motor
CUBESAT 3U, Unknown motor
Mass
~4 kg wet, ~4 kg dry
Launch date (UTC)
2025-01-14 (1 year ago)
Launch vehicle
FALCON 9
Launch site
Air Force Western Test Range (AFWTR)
Object type
Payload
Rocket body
Debris
Shape & HBR
Box + 2 Pan, 0.1 m
Radar Cross Section
0.035 m², Small (<0.1 m²)

Expand to show TLE details & history
Last TLE update: 4 hours ago

TLE from 4 hours ago
0 LIME
1 62648U 25009AR  26125.20246881  .00014972  00000-0  51696-3 0  9992
2 62648  97.3948 207.6492 0003160 121.5939 238.5611 15.30043432 72390
Epoch: 2026-05-05T04:51Z
TLE epoch observation values (Epoch: 2026-05-05T04:51:33.305Z)
Latitude
0.00006°
Longitude
-88.32027°
Altitude
479.917 km
Speed
7.625 km/s
True Right ascension
13h 50m 35s
True Declination
0° 00' 00"
Sunlit
Object was in full shadow at epoch
Visualization orbit readout
Latitude
Unknown
Longitude
Unknown
Altitude
Unknown
Speed
Unknown
Apparent Right ascension
Unknown
Apparent Declination
Unknown
Sunlit
N/A
Visualization observer readout
Local Sidereal Time
16:49:25
Azimuth
Unknown
Elevation
Unknown
Doppler factor
Unknown
Orbital elements
Apogee altitude
474.799 km
Perigee altitude
470.47 km
Semi-major axis
6,850.772 km
Eccentricity
0.00032
Inclination
97.3948°
RAAN
207.6492°
Arg. of periapsis
121.5939°
True anomaly
238.53021°
Mean anomaly
238.5611°
Eccentric anomaly
238.54566°
Mean motion
3.82767 °/min
Orbital period
94.05 mins
BSTAR
0.00051696
Loading maneuver chart data...
Computing Atmospheric mass density...
Loading historical data...
Loading historical data...
Loading historical data...
Loading historical data...
Loading historical data...
Loading historical data...
Loading historical data...

Documentation

Showing up to 5 results
|